User: anonymous   Login
Location: Poughquag
(41.6090°N, 73.6820°W)
Time: 08:53:30
(UTC-04:00)
Language:

Oscar 11 - Orbit

View from above orbital plane
View from above orbital plane
View from above satellite
View from above satellite

Ground track
Ground track

The orbit data is extracted from the following two-line orbital elements,

1 14781U 84021B   20092.10942023 +.00000079 +00000-0 +15760-4 0  9999
2 14781 097.5950 107.9132 0010038 095.1337 265.1023 14.83153263920366
Epoch (UTC): 01 April 2020 02:37:33
Eccentricity: 0.0010038
inclination: 97.5950°
perigee height: 612 km
apogee height: 626 km
right ascension of ascending node: 107.9132°
argument of perigee: 95.1337°
revolutions per day: 14.83153263
mean anomaly at epoch: 265.1023°
orbit number at epoch: 92036

The dashed part of the orbit path shows where the satellite is in the earth's shadow,  

DLR